This demonstration page uses our WeatherBlox Daily Observations layout. Learn more.

Left ArrowRight Arrow

Hourly Observations for May 11, 2019

Temp ( °F °C ) Dew Point ( °F °C ) Humidity (%) Winds ( mph kmh ) Pressure ( in mb ) Visibility ( mi km ) Precip ( " mm )
12:52 am 00:52 Cloudy 54 12.2 41 5 62 62 SSE 5 7 30.07 1018 10 16 0.00 0.00
1:52 am 01:52 Cloudy 54 12.2 42 5.6 64 64 Calm 30.05 1018 10 16 0.00 0.00
2:52 am 02:52 Mostly Cloudy 51 10.6 42 5.6 71 71 SE 5 7 30.04 1017 10 16 0.00 0.00
3:52 am 03:52 Mostly Cloudy 49 9.4 42 5.6 77 77 SSE 6 9 30.03 1017 10 16 0.00 0.00
4:52 am 04:52 Cloudy 50 10 42 5.6 74 74 SSE 7 11 30.02 1017 10 16 0.00 0.00
5:52 am 05:52 Cloudy 53 11.7 41 5 64 64 S 7 11 30.01 1016 10 16 0.00 0.00
6:52 am 06:52 Cloudy 52 11.1 42 5.6 69 69 SSE 8 13 30.02 1017 10 16 0.00 0.00
7:52 am 07:52 Cloudy 53 11.7 42 5.6 66 66 S 6 9 30.01 1016 10 16 0.00 0.00
8:52 am 08:52 Mostly Cloudy 54 12.2 43 6.1 67 67 SSE 9 15 30.01 1016 10 16 0.00 0.00
9:52 am 09:52 Mostly Cloudy 54 12.2 42 5.6 64 64 S 10 17 29.99 1016 10 16 0.00 0.00
10:52 am 10:52 Mostly Cloudy 57 13.9 43 6.1 60 60 SSE 14 22 29.98 1015 10 16 0.00 0.00
11:52 am 11:52 Mostly Cloudy 58 14.4 43 6.1 58 58 SE 16 26 29.97 1015 10 16 0.00 0.00
12:52 pm 12:52 Mostly Cloudy 59 15 43 6.1 56 56 SSE 16 26 29.95 1014 10 16 0.00 0.00
1:52 pm 13:52 Mostly Cloudy 60 15.6 43 6.1 53 53 SSE 15 24 29.93 1014 10 16 0.00 0.00
2:52 pm 14:52 Mostly Cloudy 63 17.2 42 5.6 47 47 S 14 22 29.90 1013 10 16 0.00 0.00
3:52 pm 15:52 Mostly Cloudy 64 17.8 41 5 43 43 S 17 28 29.86 1011 10 16 0.00 0.00
4:52 pm 16:52 Mostly Cloudy 64 17.8 43 6.1 46 46 S 15 24 29.84 1010 10 16 0.00 0.00
5:52 pm 17:52 Mostly Cloudy 63 17.2 42 5.6 47 47 SSE 15 24 29.82 1010 10 16 0.00 0.00
6:52 pm 18:52 Mostly Cloudy 61 16.1 43 6.1 52 52 SE 18 30 29.81 1010 10 16 0.00 0.00
7:52 pm 19:52 Cloudy 60 15.6 43 6.1 53 53 SE 16 26 29.80 1009 10 16 0.00 0.00
8:52 pm 20:52 Cloudy with Light Rain 56 13.3 47 8.3 72 72 SSE 16 26 29.81 1010 10 16 0.00 0.03
9:52 pm 21:52 Cloudy with Light Rain 56 13.3 48 8.9 75 75 SSE 13 20 29.83 1010 10 16 0.00 0.03
10:07 pm 22:07 Cloudy with Heavy Rain 54 12.2 49 9.4 83 83 W 9 15 29.84 1011 3 4 0.03 0.76
10:52 pm 22:52 Cloudy with Rain 54 12.2 50 10 87 87 ESE 3 6 29.83 1010 4 6 0.43 10.92
10:56 pm 22:56 Cloudy with Heavy Rain 54 12.2 50 10 87 87 SE 3 6 29.84 1011 5 8 0.02 0.51
11:04 pm 23:04 Cloudy with Rain 53 11.7 49 9.4 86 86 NW 9 15 29.83 1010 4 6 0.03 0.76
11:24 pm 23:24 Cloudy with Rain 52 11.1 48 8.9 86 86 NE 10 17 29.84 1010 5 8 0.08 2.03
11:35 pm 23:35 Cloudy with Light Rain 52 11.1 47 8.3 83 83 N 8 13 29.85 1011 10 16 0.09 2.29
11:52 pm 23:52 Cloudy 52 11.1 47 8.3 83 83 Calm 29.84 1010 10 16 0.09 2.29

Powered by AerisWeather